Theta_e
304 297 296 296 298 301 304 305 305 305 303 302 302 301 300 300 301 303 306 310 314 314 314 314 315 315 315 319 322 329 331 329 329 328 329 329 329 330 330 330 331 331 333 337 338 339 340 341 343 343 344 344 344 344 345 344 344 344 344 345 343 344 346 347 347 348 347 345 345 345 345 345 347 347 347 348 351 352 353 354 353 355 355 354 356 356
304 296 296 299 300 303 305 307 305 303 303 302 300 300 300 301 300 304 305 308 312 310 308 314 314 312 315 319 321 327 329 327 328 328 328 329 330 330 330 330 331 332 334 336 336 338 339 340 342 343 343 345 342 343 344 344 344 344 344 344 344 344 346 347 348 348 348 347 347 345 345 346 347 346 346 345 348 351 354 354 353 354 354 354 355 358
299 296 298 301 303 306 307 306 304 304 302 300 299 299 298 299 302 305 306 308 310 310 306 308 309 310 315 319 321 323 327 329 330 330 329 329 329 330 330 330 331 332 332 333 335 337 338 340 342 342 343 343 344 344 344 345 345 344 345 345 345 345 345 347 349 349 348 348 349 348 347 347 346 348 349 347 348 352 352 353 354 354 354 354 353 356
296 300 303 303 305 305 305 305 304 302 302 300 297 297 297 301 299 297 305 307 308 309 305 307 308 308 314 319 320 323 327 328 330 331 331 331 330 330 330 331 331 331 331 331 333 335 337 339 341 342 342 343 344 344 344 345 345 345 346 346 346 346 346 347 349 351 350 350 349 349 348 348 348 346 349 348 348 349 350 351 354 355 354 354 353 355
299 300 306 305 306 306 304 304 303 301 300 301 301 299 298 299 301 300 300 303 305 306 308 306 307 305 310 313 317 321 327 327 328 330 330 331 332 332 333 332 332 331 331 331 332 334 336 337 339 341 342 343 343 344 344 345 345 346 346 347 348 347 347 348 350 351 350 351 349 348 347 349 348 348 347 346 346 346 349 350 352 354 355 354 354 354
301 304 307 305 305 305 304 302 303 302 299 301 302 301 301 301 300 301 302 302 299 299 305 305 296 297 306 312 316 319 322 323 326 327 327 329 330 331 330 331 332 333 334 333 333 334 336 337 339 340 342 342 343 343 345 346 347 347 347 348 349 349 348 348 349 350 351 350 348 346 344 343 343 343 343 343 344 345 345 348 351 354 355 354 354 354
302 305 304 304 303 303 304 303 304 304 300 298 301 304 303 302 301 301 300 301 294 293 300 307 296 293 300 307 313 317 319 320 323 325 326 328 329 330 331 331 331 332 333 334 334 335 335 337 338 339 341 341 342 344 346 347 347 348 348 348 349 350 350 350 350 351 352 349 349 347 346 345 344 343 344 346 347 347 346 349 350 352 354 355 354 354
303 303 302 303 303 302 302 301 305 304 301 298 304 303 303 302 301 301 300 300 296 302 303 303 303 296 294 303 312 317 317 318 319 322 325 327 327 329 331 332 332 332 333 333 334 334 336 337 338 338 341 341 343 344 346 347 347 347 348 348 348 350 351 351 351 351 351 349 348 347 346 346 345 345 345 346 346 347 348 348 350 351 353 354 354 354
303 301 302 300 300 301 300 304 307 306 302 301 303 304 302 302 302 302 300 298 299 298 295 299 303 296 296 301 311 315 313 316 317 319 322 325 326 328 330 332 333 333 333 334 334 334 335 336 338 339 340 342 343 344 345 346 347 348 348 348 348 349 351 351 351 351 351 351 349 348 347 346 347 346 346 347 347 346 349 346 348 350 352 353 353 354
304 304 304 304 301 299 303 305 307 307 302 304 304 306 305 304 303 302 298 298 298 296 293 297 300 294 293 299 305 313 313 313 316 318 321 324 325 327 329 331 333 334 334 335 335 336 336 337 338 340 341 342 343 344 346 346 347 347 348 348 348 348 350 351 351 351 350 350 351 348 347 346 346 347 346 346 344 344 345 345 347 349 350 352 352 353
305 311 310 305 302 304 304 305 307 308 308 306 305 302 302 303 302 301 299 298 296 291 294 299 300 298 292 297 304 308 311 315 317 319 321 323 325 327 329 330 332 333 334 334 335 336 337 338 338 340 340 341 343 344 345 346 346 347 347 347 347 347 349 350 350 351 350 350 350 348 347 346 346 346 345 344 344 343 343 343 345 348 349 351 352 353
306 307 306 306 309 307 307 304 307 309 310 308 303 302 300 297 299 297 297 297 291 289 295 300 299 299 292 293 301 313 318 319 318 318 319 321 323 325 327 330 332 333 334 335 335 335 336 337 337 339 339 340 341 343 344 345 346 346 346 347 346 347 348 350 350 351 350 350 349 349 348 347 347 346 345 344 344 344 343 343 343 346 348 349 351 352
300 304 308 308 313 308 305 304 304 306 308 306 302 301 296 289 292 288 291 289 290 289 295 297 298 294 295 299 302 310 315 319 321 321 321 322 323 325 327 329 331 333 334 335 335 335 336 336 336 337 338 339 340 341 343 344 345 346 346 346 346 346 348 349 350 350 350 349 349 349 348 348 348 347 346 346 345 345 345 344 342 344 346 348 348 350
295 302 306 307 308 311 308 300 299 299 303 304 301 297 294 289 287 284 285 287 287 291 297 298 297 294 294 298 304 308 314 320 322 323 324 324 324 325 326 328 331 333 334 335 336 336 336 336 336 337 338 339 340 341 342 344 345 346 346 346 346 346 348 349 349 350 349 349 349 350 349 348 349 347 347 347 346 346 346 345 344 344 347 347 349 349
288 291 298 305 302 310 308 306 304 301 302 303 306 301 297 294 290 286 286 287 288 288 294 296 293 288 294 297 302 307 314 318 323 324 324 325 326 326 327 328 330 332 333 335 335 336 336 336 337 337 338 339 340 341 342 343 344 345 345 346 346 346 347 349 349 349 349 349 349 350 350 349 349 348 347 347 348 347 346 346 345 344 346 347 349 350
292 292 298 307 306 309 307 310 308 305 302 305 306 306 297 297 296 290 287 287 288 288 290 290 290 292 298 299 306 306 312 316 321 322 323 323 325 326 326 326 328 331 333 335 335 336 337 337 337 337 338 339 340 340 342 342 344 344 345 346 346 346 347 348 349 349 349 349 349 349 349 349 349 350 349 348 349 348 347 347 346 344 344 347 349 350
290 291 299 304 308 306 308 310 308 308 296 302 303 299 301 301 300 295 297 297 294 290 291 291 293 293 295 299 300 303 305 311 317 319 321 321 323 324 325 326 328 330 333 334 335 336 337 337 337 338 338 339 340 340 341 342 343 344 345 345 345 346 347 348 349 349 350 349 349 349 349 349 348 348 348 347 347 348 348 347 347 346 345 346 348 349
285 286 294 295 300 307 309 310 309 308 303 300 298 302 302 305 304 297 289 290 288 286 287 289 291 290 292 291 301 300 302 305 310 316 319 320 321 322 324 326 328 330 332 335 336 337 338 338 338 338 339 339 340 340 341 342 344 345 345 345 345 346 345 347 348 349 349 349 348 348 348 348 348 348 348 348 347 348 347 347 347 347 346 345 348 350
292 285 292 298 298 302 309 306 305 308 309 304 302 305 301 293 294 296 293 288 285 284 284 287 291 292 292 293 297 298 299 300 305 311 315 318 320 321 323 325 328 330 332 334 335 336 337 338 338 338 338 339 340 342 341 343 344 344 345 345 346 345 346 347 348 349 349 350 349 349 348 348 348 348 349 349 349 348 347 347 347 347 347 348 348 350
293 287 290 298 297 300 301 304 296 299 306 308 304 304 303 297 297 293 295 291 290 284 287 286 289 290 295 296 297 300 300 301 301 309 313 315 318 321 323 325 327 329 331 333 335 336 337 338 339 339 339 339 339 340 341 342 343 343 344 345 345 346 346 347 347 348 348 349 349 349 349 348 349 349 348 349 349 348 347 348 347 347 347 348 350 350
289 296 284 293 298 299 293 299 299 300 297 299 299 298 300 300 298 300 295 292 291 284 282 284 286 289 293 298 300 301 301 302 301 309 314 316 317 321 323 325 327 329 331 332 334 336 337 338 339 339 340 340 341 341 342 342 342 343 344 344 345 345 345 345 346 347 347 348 348 348 347 347 348 348 349 348 349 348 348 348 349 348 348 348 349 351
289 291 286 290 291 290 294 300 302 303 302 299 299 298 300 297 292 292 291 294 291 289 283 283 286 289 295 303 302 302 303 304 303 308 315 318 318 320 323 325 327 328 331 333 334 336 337 338 339 339 340 341 341 341 341 342 342 343 343 343 344 345 345 345 345 346 347 348 348 347 347 347 348 348 348 348 348 348 348 348 349 349 349 347 348 351
294 293 290 286 289 291 296 300 302 302 303 302 301 299 301 299 294 293 288 290 293 292 294 289 287 293 301 302 304 304 304 305 305 305 313 319 320 321 323 325 327 329 331 333 334 336 337 338 339 339 339 340 340 341 341 342 342 342 343 343 344 344 345 346 346 347 347 347 347 347 347 347 348 348 348 348 348 348 348 349 349 350 349 349 348 350
302 291 285 287 290 294 298 301 302 304 304 300 300 302 301 298 299 298 296 291 293 291 292 289 289 294 300 306 305 305 305 305 305 304 309 317 321 322 323 325 326 328 330 333 335 336 337 338 339 339 338 339 340 340 341 342 342 343 343 344 344 344 345 346 346 346 347 347 347 347 347 347 348 348 348 348 348 348 349 349 349 351 350 350 350 349
289 290 286 282 283 289 294 298 298 302 302 299 297 300 302 303 301 297 296 294 294 292 294 289 288 293 303 310 307 308 308 305 304 304 309 313 320 323 324 325 327 328 330 332 333 335 336 337 337 338 338 339 340 341 342 342 343 343 343 344 344 345 346 346 347 346 346 347 347 347 347 347 347 347 347 348 348 349 349 350 350 350 350 351 351 351
292 290 286 279 278 280 283 284 285 289 292 294 298 300 301 301 300 295 294 292 292 293 293 290 291 295 300 302 303 302 304 304 306 304 309 314 318 322 324 326 327 329 330 332 333 334 335 336 338 338 338 339 340 341 342 342 343 344 344 345 346 345 346 346 347 347 347 347 347 347 347 347 347 347 348 348 349 349 350 350 350 350 351 351 351 351
291 292 289 286 283 282 285 287 292 294 292 289 295 296 298 301 302 299 294 290 292 289 292 293 296 298 300 302 302 302 302 305 305 303 307 313 318 323 324 326 328 329 330 332 334 335 336 336 337 337 338 339 340 341 342 343 343 344 345 345 346 347 347 347 347 347 347 347 347 347 347 348 348 348 348 349 349 350 350 350 351 351 350 351 350 351
291 286 288 288 288 288 290 290 292 293 289 290 291 292 297 299 300 298 296 294 294 291 288 293 296 297 300 302 302 301 302 306 304 302 308 315 319 322 324 326 334 329 331 332 334 334 335 336 337 337 338 339 339 341 342 343 344 345 345 345 347 347 348 348 348 347 347 347 347 347 347 348 349 349 350 350 350 350 350 351 351 351 351 351 350 349
289 285 290 290 289 291 292 292 293 292 292 292 294 296 297 301 299 297 298 296 296 296 293 294 296 296 300 303 303 301 301 306 307 304 309 316 321 323 324 325 327 328 329 331 332 334 335 335 336 337 338 339 339 340 342 343 344 345 346 347 347 348 348 349 348 347 347 347 347 347 348 349 349 350 350 351 350 350 350 351 351 351 351 351 350 350
291 286 289 291 288 289 290 291 292 293 293 294 296 298 300 301 299 299 299 298 298 296 298 298 297 298 301 300 303 306 307 307 310 313 311 315 319 322 323 324 326 327 329 330 332 334 335 336 337 337 338 338 339 340 341 343 344 345 345 346 347 348 349 349 348 348 348 347 348 349 349 349 350 350 350 350 350 350 350 350 351 351 350 350 350 350
291 286 293 290 287 287 290 293 294 292 294 296 300 301 304 300 299 299 299 299 301 299 301 299 297 298 301 303 306 308 311 313 314 313 311 314 319 322 323 324 326 327 328 330 331 333 335 336 337 338 338 338 339 339 341 343 344 345 346 347 348 348 350 350 349 348 348 348 349 349 350 350 349 350 349 350 350 350 350 350 350 350 350 350 350 350
291 287 291 288 283 284 289 291 290 293 295 297 297 297 300 306 299 298 299 309 300 298 299 302 298 297 302 310 318 324 328 328 326 322 316 314 317 321 322 323 325 326 328 329 331 332 333 334 336 337 338 338 339 340 341 342 344 345 345 347 348 349 351 350 350 349 349 349 349 350 350 350 350 350 350 350 350 350 350 350 350 349 349 349 349 349
289 288 285 285 282 282 288 291 290 292 295 294 293 296 299 309 308 309 310 311 310 309 297 297 296 302 307 317 321 324 326 327 327 329 325 319 317 319 321 323 325 326 328 329 330 332 332 333 335 337 339 339 340 340 341 343 343 344 345 347 348 350 350 350 350 350 350 350 350 350 350 350 350 350 350 350 350 350 350 350 350 349 349 349 350 350
290 289 286 288 281 283 288 289 293 293 287 290 302 302 301 306 308 306 305 307 309 312 308 308 309 318 321 322 322 322 324 325 327 329 331 329 323 321 324 322 325 326 327 329 330 331 332 333 335 337 339 340 341 342 343 344 344 345 347 348 349 349 349 350 351 351 351 351 351 351 351 351 350 350 350 351 351 351 350 350 349 350 350 350 350 349
289 289 286 287 284 283 287 290 293 285 290 302 304 303 302 304 303 306 309 308 308 310 312 314 316 316 318 321 324 325 327 329 330 330 332 334 333 332 330 327 326 325 325 326 328 329 330 331 333 334 335 338 340 340 341 343 345 346 347 348 348 349 349 350 350 351 351 351 352 352 352 351 351 351 351 351 351 351 350 350 350 350 350 350 349 348
288 287 287 286 288 287 288 284 284 287 302 301 303 302 303 304 303 304 309 308 308 308 310 312 315 318 321 321 321 323 328 330 331 331 331 334 337 337 335 334 334 335 334 333 333 333 333 333 334 335 336 341 342 341 341 342 344 345 346 349 349 349 349 350 351 351 351 352 352 353 353 353 352 351 351 351 351 351 350 351 350 350 351 350 350 350
292 290 288 283 289 284 285 282 286 297 299 299 296 297 297 296 298 298 301 305 309 309 310 311 316 319 321 323 324 324 323 327 328 328 332 333 335 339 341 342 343 342 343 342 341 340 339 339 340 343 346 343 343 342 341 342 344 344 345 346 348 348 349 350 350 351 352 353 353 354 354 354 353 352 352 352 351 350 351 350 351 351 352 350 350 349
294 287 289 283 285 290 282 282 283 289 286 292 296 299 301 303 304 304 302 305 309 309 311 310 313 317 320 323 323 324 325 325 320 323 329 332 335 337 340 340 342 343 344 345 346 347 347 348 349 351 350 351 352 353 352 345 345 344 344 345 347 348 348 348 349 351 353 353 354 355 355 355 354 353 353 352 351 351 351 352 352 352 352 350 349 349
295 295 291 287 285 285 284 282 281 280 287 293 294 298 302 304 304 305 305 301 308 309 311 311 311 314 319 321 322 324 324 318 318 323 328 332 333 335 337 339 341 342 344 345 345 345 345 345 346 348 349 349 349 350 354 353 346 346 345 347 346 347 347 348 349 350 351 354 356 356 356 356 356 355 354 353 353 353 352 352 352 353 353 352 351 350
292 293 291 285 284 285 286 283 282 287 285 292 297 300 302 306 307 301 297 295 306 310 312 311 309 310 316 321 323 321 319 316 318 323 329 331 333 335 335 336 339 341 342 344 345 345 345 347 347 346 346 346 347 350 353 356 357 357 353 352 348 346 347 348 350 351 351 353 355 357 357 357 357 356 355 354 354 354 354 354 353 352 352 352 352 351
289 290 290 283 284 287 287 286 290 289 296 298 299 302 305 308 306 295 289 297 309 310 312 312 310 309 313 317 319 316 320 323 325 328 330 331 331 332 335 338 338 340 342 343 343 348 344 345 345 344 345 346 348 350 353 356 356 355 356 352 352 352 353 351 349 348 350 351 352 354 356 357 357 357 357 357 356 356 355 355 353 353 352 351 352 351
290 290 291 290 286 285 287 284 286 290 296 300 303 305 308 305 294 292 303 311 311 309 311 311 309 309 310 312 315 316 318 320 323 325 327 329 330 331 333 335 337 339 341 345 348 346 342 342 342 342 343 344 347 349 351 352 353 351 349 349 350 352 358 358 357 355 349 349 350 352 354 355 357 358 358 358 357 355 354 355 354 353 352 352 351 350
287 287 285 286 290 290 289 287 285 281 292 303 304 303 306 297 297 307 311 311 312 310 309 308 308 308 309 308 312 313 314 315 317 320 322 325 328 330 331 332 333 335 336 339 340 344 342 340 340 340 340 342 344 346 347 349 349 349 347 346 347 350 352 354 354 354 351 348 348 350 352 353 355 356 358 357 357 356 354 355 354 353 352 351 350 349
294 286 285 288 292 285 285 282 283 292 298 305 302 292 300 303 307 308 311 307 311 310 309 307 308 308 309 309 309 311 312 312 313 316 319 322 325 328 330 332 333 334 336 339 340 341 342 339 339 338 339 340 342 343 344 344 346 348 345 341 345 347 351 350 351 351 348 347 347 349 351 352 354 355 356 357 357 356 355 354 354 353 353 352 350 349
294 292 293 286 294 289 287 291 296 300 305 306 305 303 304 305 306 306 307 310 308 309 311 307 307 308 309 310 310 309 310 311 311 314 316 319 323 325 326 328 331 332 334 335 338 341 340 338 336 337 337 338 339 340 341 341 342 343 341 341 345 348 347 348 351 350 351 345 346 348 350 352 353 353 355 356 356 355 354 353 353 352 352 351 350 350
299 299 298 296 291 297 301 299 303 300 302 304 306 307 305 304 305 306 305 304 308 312 312 309 307 307 308 311 309 308 308 309 310 311 313 316 320 324 326 326 328 331 333 335 337 338 336 337 337 336 336 336 338 339 341 340 341 341 338 342 346 345 345 348 349 351 351 348 344 347 350 351 352 353 354 355 356 356 355 354 353 353 352 352 351 351
298 299 296 289 292 290 287 300 297 296 298 303 304 306 307 306 305 305 303 304 305 309 313 311 310 308 308 310 310 309 308 308 308 310 312 314 317 321 325 325 325 328 330 331 336 338 333 335 335 335 336 335 336 338 340 340 341 342 342 345 345 345 346 349 352 352 350 349 344 345 349 351 352 353 354 354 355 355 356 355 354 353 352 353 352 351
291 298 294 291 290 291 290 295 296 296 297 304 304 303 303 303 303 304 305 305 305 308 310 312 310 308 309 308 311 311 309 309 308 308 309 312 314 317 322 325 324 326 329 332 334 338 334 333 333 334 334 334 334 336 338 339 339 340 342 343 344 344 345 350 352 350 346 347 346 348 350 351 361 357 354 353 355 354 354 355 356 354 353 353 353 352
295 296 287 291 288 292 295 296 294 295 296 303 304 304 303 303 302 303 303 304 304 306 306 310 311 309 309 308 311 312 309 309 308 308 310 310 312 314 317 324 324 324 327 330 332 337 335 331 334 333 334 333 333 335 336 336 338 340 341 342 343 343 345 349 354 349 345 346 349 349 351 353 358 355 344 329 321 313 310 313 321 345 344 329 325 343
292 287 291 290 286 286 288 290 293 287 288 294 298 300 300 301 302 302 302 303 303 303 306 307 310 309 310 311 312 313 309 307 308 308 309 310 311 313 315 323 324 324 326 329 332 333 335 336 333 333 333 333 334 335 336 336 337 339 340 342 344 344 345 346 347 345 345 346 344 349 351 355 354 347 341 335 327 323 319 313 303 306 325 325 320 311
290 291 290 287 286 285 291 293 294 294 294 295 296 298 299 301 301 300 300 302 303 303 306 307 309 308 308 311 314 311 310 309 308 308 309 310 311 312 315 323 323 323 326 329 330 332 335 335 337 335 334 333 335 335 335 336 336 337 339 340 343 344 343 343 343 343 344 345 345 343 352 354 352 344 339 334 330 329 327 325 318 302 300 306 307 301
Wind_Speed
6 11 14 17 20 21 15 11 9 6 4 2 4 5 7 6 6 4 6 5 4 5 12 12 10 10 9 14 16 18 17 16 16 16 16 16 16 16 16 17 18 18 19 16 17 17 18 18 16 15 14 14 15 15 15 15 15 15 14 13 14 12 12 11 10 9 9 9 8 7 9 10 8 7 6 6 6 6 6 7 7 7 6 6 6 6
9 11 15 20 14 9 9 6 6 6 8 7 3 4 7 7 9 6 5 5 3 5 6 12 12 6 11 13 16 16 18 18 18 19 19 19 18 17 19 19 19 19 11 12 14 15 16 15 17 16 14 15 17 16 16 17 17 15 15 15 14 11 12 13 12 11 10 10 10 10 11 10 8 7 7 7 6 7 6 6 7 7 6 6 6 6
12 16 19 16 5 5 5 6 6 10 9 5 7 5 4 7 2 5 7 8 3 6 8 4 8 9 11 14 14 17 21 19 20 22 22 21 19 17 18 19 18 14 14 15 17 17 16 17 18 16 15 16 18 17 17 17 17 16 15 14 13 12 12 12 12 11 11 10 9 9 7 9 7 6 6 6 5 5 6 6 6 7 7 6 6 6
9 16 17 7 8 5 6 7 7 7 8 8 6 6 10 3 3 6 9 7 3 5 2 4 8 6 9 13 17 19 21 18 20 21 20 21 22 21 22 21 19 19 18 19 19 20 18 18 17 16 16 17 16 16 16 17 18 15 14 14 14 13 13 12 12 12 11 10 8 6 4 5 6 5 4 4 4 5 5 7 6 6 6 7 7 6
13 3 10 6 9 12 11 9 10 8 10 10 10 8 8 6 7 6 4 4 3 4 2 2 3 4 6 10 10 14 18 17 18 18 18 18 21 23 21 18 18 21 21 20 19 18 18 19 20 20 18 16 17 17 17 17 16 13 16 15 15 13 14 12 13 13 10 8 6 5 3 3 2 2 4 3 4 6 6 6 6 8 6 6 7 6
13 12 8 13 12 13 12 10 12 10 10 10 12 13 8 4 7 4 5 4 3 7 2 2 3 6 5 15 18 13 12 13 14 17 19 19 18 15 14 18 18 18 18 20 22 23 23 22 18 17 17 18 17 18 17 17 17 16 15 15 15 12 12 13 13 13 11 10 10 9 8 7 7 7 6 8 9 7 8 10 7 6 7 7 6 6
10 6 7 15 14 11 14 13 10 10 11 7 16 13 11 7 5 6 3 2 5 7 5 3 7 8 2 10 14 16 16 19 12 17 20 20 18 16 17 17 18 19 18 16 17 18 18 19 19 19 20 20 20 19 16 16 17 18 16 16 16 14 12 12 12 13 12 11 10 12 12 12 12 12 9 9 9 9 7 5 6 7 6 7 7 6
7 11 8 9 15 15 12 13 12 13 9 15 7 5 7 9 12 12 4 4 5 2 5 1 3 6 6 6 13 19 19 19 17 18 20 18 18 19 19 19 19 20 19 19 20 20 20 21 22 23 23 20 21 19 16 16 16 18 17 16 16 13 13 12 12 14 13 12 12 12 11 10 10 11 11 10 9 6 5 6 6 6 6 7 7 7
10 13 15 13 10 14 17 17 13 13 13 5 5 8 9 11 12 11 4 5 4 3 11 7 1 5 5 5 8 17 19 20 21 20 20 20 19 20 20 20 21 21 22 21 19 21 22 22 23 22 21 22 19 17 17 17 17 16 16 16 15 15 14 13 14 14 14 13 12 12 11 11 10 9 8 5 5 5 5 6 4 6 6 6 6 6
10 11 13 14 10 12 12 12 10 12 12 5 5 8 6 7 9 8 5 4 5 3 13 11 5 5 9 5 4 12 19 22 21 20 21 22 22 22 20 20 21 20 19 19 22 21 22 22 22 22 20 18 18 18 18 17 15 15 15 16 17 16 14 13 15 15 15 14 12 12 11 12 10 8 6 5 6 5 5 6 6 6 6 6 6 6
2 8 11 12 15 10 5 8 11 13 12 3 5 4 8 8 7 3 6 4 2 11 14 15 10 6 8 7 8 11 16 18 16 15 17 19 20 20 20 21 19 18 18 18 19 19 20 20 20 18 18 19 17 15 16 16 16 16 16 16 17 18 14 14 15 15 16 15 13 12 13 13 12 10 7 6 6 5 4 6 7 7 7 6 7 6
11 3 9 8 12 7 6 5 8 12 12 8 4 7 0 4 0 2 2 4 9 13 10 14 11 9 11 8 5 13 17 20 20 20 20 19 21 21 20 19 19 19 19 20 19 18 17 15 16 16 18 18 18 15 16 16 16 16 16 16 18 17 17 15 15 16 16 15 14 13 13 13 12 11 9 10 10 9 9 8 7 6 6 6 6 6
11 15 3 4 10 16 10 9 8 10 11 12 6 7 10 2 3 6 4 10 12 11 5 5 6 4 15 12 7 14 13 16 22 21 23 25 25 23 22 22 20 19 19 18 18 17 16 17 18 19 18 17 18 18 18 18 17 16 16 18 19 18 18 16 15 16 16 15 14 14 14 13 11 10 10 10 9 9 9 8 6 6 7 6 6 7
8 4 13 10 3 11 11 13 8 9 11 12 12 9 9 9 8 8 5 1 2 4 9 9 5 11 1 7 15 13 18 18 19 21 23 25 25 25 23 21 19 18 19 18 18 17 18 19 18 20 19 19 18 18 18 18 17 16 16 18 19 19 18 16 16 17 16 16 15 14 13 12 11 11 10 10 10 10 9 8 8 9 9 8 9 9
8 12 14 13 12 9 13 12 12 7 10 12 11 10 11 8 5 9 5 10 9 6 8 4 5 6 9 7 8 14 16 18 18 20 18 22 24 24 24 21 21 19 18 17 17 17 19 19 20 19 19 19 19 19 18 17 17 16 16 18 19 18 18 17 17 16 17 16 16 14 13 12 11 11 10 10 9 9 9 8 9 8 7 8 8 9
14 9 5 17 6 12 12 13 10 10 6 11 11 9 7 17 6 5 5 4 3 3 7 3 7 6 8 3 4 8 13 17 18 17 15 14 14 16 12 14 17 18 18 17 17 17 18 18 18 17 17 18 18 19 18 19 17 17 18 19 21 21 19 18 18 16 17 16 14 15 14 14 13 11 10 8 8 8 9 9 9 9 8 8 7 7
6 12 3 5 17 12 18 13 12 13 12 9 10 16 14 8 5 4 3 1 2 3 13 2 3 4 7 6 5 5 6 12 17 18 17 15 14 13 13 15 17 18 18 18 18 17 19 17 17 17 18 17 18 18 20 20 20 21 19 19 20 20 18 19 19 18 17 16 15 15 15 13 12 13 12 12 12 11 9 9 9 8 9 7 6 7
6 14 18 13 12 19 11 13 14 16 6 6 11 14 5 5 4 6 7 1 5 8 7 2 7 3 5 9 2 5 8 11 12 18 21 18 14 15 16 17 18 19 19 20 21 21 21 20 21 19 18 20 21 22 21 21 20 19 19 19 20 19 19 18 18 17 16 16 15 14 14 13 13 13 13 11 11 10 8 8 8 7 7 8 8 8
8 9 7 7 10 8 13 7 10 15 14 11 9 10 10 9 12 8 2 10 7 6 2 3 4 5 9 6 4 8 9 8 11 12 16 20 19 19 18 20 20 20 18 18 19 18 16 16 17 18 19 20 20 20 20 19 19 17 17 18 19 20 20 19 16 15 14 14 12 11 13 13 12 11 11 10 10 9 9 10 9 9 10 8 7 7
5 3 7 4 4 7 5 11 13 9 12 17 7 11 7 4 9 8 10 2 3 4 1 7 2 8 6 7 7 10 10 10 10 10 13 17 18 19 19 19 20 19 18 18 18 17 18 19 20 20 20 20 20 19 18 18 16 18 18 17 17 16 16 16 17 16 15 14 13 12 12 12 12 11 11 11 10 10 11 11 11 10 9 10 8 8
5 2 5 9 14 8 5 7 15 12 11 11 10 8 7 5 1 5 0 4 6 4 4 2 6 5 7 6 8 11 9 10 11 13 13 15 16 17 19 20 19 20 20 19 19 18 19 20 19 19 18 18 17 15 14 15 18 18 16 16 17 18 17 17 16 15 14 14 14 14 14 14 13 13 12 11 11 11 11 10 9 9 9 5 7 8
4 1 7 11 10 5 8 5 3 7 8 9 11 12 10 9 5 11 9 1 4 2 3 2 10 5 10 5 11 10 9 9 9 14 13 14 16 17 17 20 20 19 20 21 20 20 20 20 19 18 16 13 13 14 17 17 16 16 17 17 17 17 16 17 17 16 15 13 13 15 14 14 13 13 12 13 12 12 12 10 10 9 6 8 8 8
4 4 5 11 7 9 16 19 14 15 11 10 9 11 10 6 5 6 9 7 3 4 5 3 1 13 6 7 11 12 11 12 11 14 14 14 16 18 18 21 20 22 22 21 21 20 18 18 19 19 19 18 19 19 18 17 17 17 18 17 16 17 18 18 18 16 15 14 14 15 14 14 13 13 14 14 13 13 12 11 10 8 9 9 8 8
10 1 7 9 10 12 17 16 14 11 7 6 7 9 10 11 11 11 8 5 6 2 4 4 3 12 6 6 8 11 11 11 9 9 12 13 15 17 18 19 20 19 19 20 19 17 17 16 15 13 15 16 15 15 17 17 17 17 16 17 16 19 20 18 16 16 15 14 15 15 15 14 13 14 14 14 13 14 13 12 11 9 10 10 8 9
6 1 3 7 7 8 10 4 2 1 4 1 3 8 12 12 12 4 5 2 6 9 9 6 12 10 11 4 2 0 1 5 7 8 13 15 13 15 17 18 18 19 19 18 17 17 15 15 15 15 17 17 16 16 16 17 17 17 17 16 17 18 18 17 15 15 15 15 16 15 15 15 14 14 14 14 12 14 14 13 11 10 12 11 10 10
5 4 2 3 3 7 12 11 4 6 8 11 10 8 14 17 15 6 8 3 10 3 7 7 10 12 13 4 3 4 2 5 6 9 15 17 17 16 15 15 16 17 17 18 17 15 16 18 18 17 17 16 16 16 16 16 16 16 16 17 17 16 16 16 14 15 15 15 15 15 16 15 14 15 15 15 14 15 14 13 12 12 11 11 12 11
2 2 4 5 6 9 7 8 10 7 11 6 14 16 13 14 16 9 6 6 11 4 7 8 10 12 15 18 15 9 4 8 6 9 14 14 15 18 17 15 15 16 16 18 17 17 17 16 18 18 18 17 17 16 15 16 16 16 16 17 16 15 15 16 15 15 15 15 15 14 15 15 15 14 14 14 14 13 12 13 13 13 13 12 12 12
1 4 7 9 11 13 13 15 19 14 16 18 16 17 17 13 13 15 12 12 6 9 10 5 6 10 19 19 16 12 7 8 6 7 13 15 16 16 15 14 16 15 14 14 15 16 18 19 18 17 17 17 16 16 15 15 16 16 16 17 16 15 15 13 15 15 15 15 15 15 16 15 14 14 14 13 13 13 13 13 12 13 12 11 12 12
2 4 5 3 9 12 16 20 18 15 14 15 14 16 17 14 10 18 16 7 11 10 11 5 7 9 17 20 13 6 5 9 10 10 16 18 15 14 14 15 15 15 14 14 16 17 18 18 16 17 17 17 16 16 16 14 14 13 12 13 14 14 16 15 15 16 16 15 15 15 15 14 13 13 13 13 13 13 13 13 12 12 11 11 11 11
2 5 6 6 13 16 16 13 13 13 11 12 13 15 18 20 15 17 13 7 14 7 8 9 8 15 17 5 5 7 6 8 8 4 3 2 9 13 14 14 16 16 16 18 18 18 18 19 18 18 18 16 17 16 15 14 15 15 16 16 17 17 16 15 16 16 15 15 15 14 14 14 13 12 13 13 14 14 13 12 12 12 12 12 12 12
1 5 7 8 9 14 12 9 8 9 6 7 6 12 10 3 13 13 11 7 6 3 2 5 6 10 6 3 3 3 4 2 4 1 5 11 13 14 15 16 16 16 17 18 17 18 18 18 18 16 16 17 17 17 17 16 16 15 15 15 16 16 15 15 15 15 15 15 15 14 13 12 12 12 13 14 13 12 13 13 12 12 12 12 12 13
2 4 3 4 7 9 7 10 17 14 11 2 10 17 20 13 1 2 3 6 1 4 3 0 2 6 3 5 3 3 8 10 7 6 1 4 7 15 17 17 16 16 17 18 18 17 16 15 14 16 17 17 17 17 16 15 14 14 16 15 16 15 13 14 14 14 14 14 13 13 13 13 13 13 13 13 13 13 13 12 13 13 13 13 13 13
3 2 4 4 7 7 7 13 15 13 5 4 10 13 13 12 7 9 10 11 10 3 2 1 2 4 4 7 7 6 10 11 12 9 6 2 2 8 15 16 15 16 17 16 15 14 15 16 17 18 19 17 17 17 18 17 15 16 16 15 13 12 13 14 14 14 14 14 14 14 13 13 13 14 13 14 14 13 13 13 14 14 14 14 14 11
5 4 3 2 3 7 14 15 12 2 4 1 0 10 13 12 15 17 11 12 13 10 0 2 2 4 11 10 10 7 12 10 8 9 9 6 1 2 0 4 11 14 14 13 15 17 16 14 13 14 15 16 16 17 16 15 17 15 13 12 11 13 13 13 13 14 15 15 14 14 14 14 14 14 14 14 13 13 13 14 15 15 14 13 12 13
5 5 4 2 2 6 11 12 2 2 2 1 6 11 16 11 11 8 14 16 17 17 16 11 11 10 8 6 4 5 6 8 16 18 17 15 9 6 5 6 5 6 8 9 8 7 7 9 9 8 9 9 10 7 7 8 7 6 8 10 12 12 12 12 13 14 14 14 14 14 13 14 14 14 14 14 14 14 14 15 14 14 13 13 14 14
4 3 3 2 3 5 4 4 3 3 1 4 3 10 14 6 7 10 7 21 20 17 13 12 12 11 9 9 9 6 2 6 16 19 18 16 14 8 9 7 6 9 9 8 11 9 10 10 11 11 9 6 7 7 9 9 9 10 11 10 11 11 12 13 13 14 13 13 13 14 14 14 14 15 14 14 14 14 15 14 15 15 13 13 13 12
9 6 3 4 2 1 4 3 6 6 5 6 8 10 14 10 13 9 7 10 17 16 16 13 13 14 13 11 9 9 8 6 17 15 18 17 15 13 12 10 9 11 12 10 12 10 9 10 11 10 8 8 7 8 8 8 9 10 9 10 10 10 11 12 13 13 13 14 14 14 15 15 15 15 15 15 14 15 15 15 14 14 12 13 13 13
9 7 3 2 2 0 4 6 4 2 2 5 7 13 8 9 13 11 5 7 17 21 17 16 14 13 14 14 13 10 7 11 15 10 14 16 14 14 13 13 11 12 13 14 14 14 13 12 12 11 12 11 8 4 5 9 10 10 9 9 9 10 10 11 12 13 13 14 14 15 15 15 15 15 15 14 15 15 15 15 14 14 12 14 14 14
10 9 9 6 5 4 3 0 0 0 1 2 18 19 19 12 12 7 5 10 12 17 18 15 16 14 12 13 16 14 3 14 6 7 11 13 14 13 12 12 12 12 11 12 15 15 14 12 13 12 12 12 10 4 4 6 10 10 9 9 9 10 10 11 12 12 13 14 14 15 15 15 15 15 15 15 15 15 15 15 15 14 13 13 13 13
8 5 4 1 5 5 3 2 1 0 1 13 18 19 20 17 6 3 4 6 12 16 15 14 15 14 13 14 10 10 12 12 7 7 9 10 10 11 12 12 12 12 11 11 11 12 12 11 14 15 14 12 7 4 6 8 8 6 6 5 7 9 11 12 12 12 12 12 13 13 13 13 14 14 14 15 15 14 14 14 12 12 12 12 11 11
3 3 1 5 2 4 4 2 3 1 3 13 17 19 20 14 3 6 8 1 8 12 13 12 13 14 11 13 11 10 11 8 7 7 10 11 13 14 13 12 11 10 11 10 9 8 12 13 14 13 12 8 7 7 6 8 10 8 6 6 6 3 0 1 2 4 6 8 10 11 12 12 13 15 14 14 15 15 14 12 12 12 12 12 11 11
2 2 1 2 2 2 3 3 3 3 1 14 17 17 18 3 8 6 4 2 6 9 11 11 13 14 13 13 10 9 8 10 11 12 13 13 11 10 12 12 13 13 11 9 9 8 10 12 13 12 11 8 9 8 7 9 10 8 6 7 6 1 0 1 2 2 4 7 9 10 11 12 12 13 13 13 12 11 12 11 12 11 12 10 10 11
5 3 4 6 6 3 4 3 3 2 5 16 19 9 18 10 6 6 3 4 6 8 11 12 13 13 13 11 11 11 13 14 14 13 12 13 13 13 12 13 12 11 10 9 10 9 9 10 12 11 9 8 8 8 7 10 10 7 6 7 3 2 1 0 1 2 4 6 8 10 12 12 14 13 10 11 12 13 13 11 11 11 10 10 10 11
8 4 3 3 4 3 4 4 2 2 6 11 13 8 8 10 9 11 7 5 6 7 9 10 11 13 13 11 11 12 12 14 14 14 13 14 14 13 12 12 12 11 11 10 8 7 8 10 9 10 9 8 8 7 7 8 7 6 6 4 3 2 1 2 1 0 2 5 6 8 9 11 13 13 12 13 12 12 12 10 10 10 9 10 10 9
11 6 3 2 4 3 1 2 2 2 3 5 7 8 8 11 10 11 12 8 7 7 8 8 10 12 12 12 11 11 9 11 10 10 10 10 11 12 12 11 10 10 10 9 8 7 7 9 9 9 9 8 7 6 6 5 7 7 6 4 3 3 3 3 3 3 3 1 5 6 7 8 9 11 11 11 12 11 10 10 8 9 8 8 8 9
8 8 6 4 7 10 3 5 2 5 5 6 4 5 7 9 13 13 11 11 10 7 8 9 12 13 12 12 9 11 12 11 13 13 12 11 11 12 12 12 12 11 12 11 10 8 6 7 9 9 10 9 7 6 5 5 6 7 2 2 3 3 3 2 3 4 4 3 2 4 5 7 8 9 10 10 9 11 10 11 10 10 8 9 9 9
8 10 5 5 10 6 2 2 9 8 5 6 3 3 5 8 10 11 13 12 11 12 8 10 11 13 13 11 10 10 13 13 12 12 11 10 12 12 12 12 11 10 9 11 10 6 6 7 9 10 10 10 7 6 6 6 6 4 3 4 3 3 3 2 2 3 4 5 2 3 4 6 7 7 7 7 7 7 7 7 8 8 8 8 8 7
6 13 2 8 9 4 5 7 9 12 8 7 5 2 7 9 11 9 9 13 11 11 11 9 11 12 12 12 11 10 12 12 10 12 10 9 9 10 11 12 12 12 11 9 9 8 5 6 8 8 8 7 5 5 6 6 6 5 4 4 4 3 3 3 2 2 3 3 1 3 4 5 7 7 5 4 4 5 5 5 6 7 7 8 8 8
7 8 5 10 6 8 9 3 16 20 10 9 6 7 7 9 11 9 10 13 13 13 14 11 8 10 12 12 11 10 12 13 10 8 10 9 9 10 9 10 10 9 8 10 9 7 5 3 5 6 7 5 3 5 5 5 5 5 5 4 3 3 4 3 3 3 3 3 0 2 2 4 4 6 7 8 10 9 7 4 2 1 4 4 2 3
7 10 10 9 7 5 4 8 13 10 11 6 8 5 2 5 5 9 9 11 12 12 12 14 10 10 10 11 10 8 10 11 11 10 11 10 9 9 9 8 9 9 9 7 5 5 4 3 4 6 6 4 5 6 7 7 7 6 6 5 5 5 6 4 4 4 5 4 3 1 3 5 6 7 7 8 7 9 9 12 12 8 3 2 4 3
7 7 8 6 6 9 12 14 10 10 14 14 14 16 15 8 6 10 11 10 10 11 11 13 10 8 9 9 10 11 9 10 10 9 9 10 11 9 7 8 10 10 10 9 9 9 7 6 5 7 8 7 7 8 7 7 7 7 7 6 5 6 6 5 5 5 5 5 4 2 3 5 7 7 7 7 7 7 9 7 11 16 15 10 7 8
Wind_Direction
150 195 196 200 209 210 212 212 211 230 278 179 176 185 225 225 258 253 252 242 204 180 206 211 218 208 190 186 183 181 179 182 177 176 181 183 183 185 188 192 194 192 194 186 186 185 186 185 184 183 181 183 183 183 182 182 185 185 185 182 189 186 179 179 179 184 184 186 191 197 200 208 207 202 195 192 196 191 191 186 185 185 188 186 179 176
174 208 221 220 214 206 211 209 184 209 227 242 229 194 229 216 238 240 253 260 201 194 242 216 216 198 195 193 189 177 177 186 184 183 185 186 186 187 189 193 197 199 185 177 187 189 182 184 183 183 184 182 182 186 183 184 186 187 185 187 188 182 184 185 184 185 189 192 192 189 196 198 199 197 193 196 194 192 190 187 186 188 190 187 183 178
200 215 220 217 184 196 209 201 190 198 216 228 226 230 244 246 250 283 261 266 241 206 242 184 210 211 198 195 189 179 185 192 189 185 186 184 187 190 192 194 195 188 189 185 191 190 187 182 181 183 185 187 186 182 184 186 185 186 186 189 184 185 186 190 186 185 194 194 195 193 196 194 196 207 199 185 180 183 189 191 192 193 192 187 188 183
207 231 227 187 188 179 203 213 196 201 211 217 224 210 228 220 160 253 258 267 234 198 234 199 206 219 205 197 187 192 189 195 193 190 186 185 186 191 194 191 188 190 190 190 189 190 189 185 182 183 185 186 185 184 186 187 187 186 188 187 186 187 188 189 190 191 193 194 192 198 189 190 186 191 186 168 160 184 185 199 196 202 195 190 192 187
207 356 183 162 178 197 212 209 208 203 221 222 218 221 230 213 222 205 260 345 315 294 257 332 329 299 182 190 206 204 200 193 194 192 192 192 194 195 194 190 188 190 191 191 189 188 188 188 189 187 185 182 187 188 188 186 187 188 188 186 186 187 189 189 190 189 182 180 172 168 139 144 136 83 155 156 187 194 197 195 197 207 196 195 197 191
234 249 134 177 193 196 206 217 214 203 229 232 231 221 219 208 238 247 273 327 346 309 293 145 292 267 202 189 192 200 203 211 196 189 194 196 200 197 191 195 194 198 197 192 189 189 189 190 187 184 181 186 191 192 191 187 187 187 187 185 185 187 189 190 189 184 178 184 180 172 171 173 186 193 180 195 201 198 197 204 198 196 195 195 200 195
229 200 185 181 194 199 204 216 214 196 224 218 232 211 212 218 240 240 222 161 251 245 277 169 203 267 277 189 198 199 196 204 195 198 199 196 195 191 197 194 193 194 196 203 201 193 189 188 186 187 187 188 190 194 187 187 190 189 185 185 185 187 190 189 185 182 183 185 187 189 192 190 190 194 201 201 204 201 201 188 188 195 191 196 196 199
189 198 190 209 189 198 204 216 209 196 201 231 215 180 187 216 233 238 193 207 246 265 280 298 164 242 280 240 194 194 198 203 200 201 202 202 195 195 197 195 195 194 194 194 196 194 193 189 188 189 191 189 193 187 184 187 189 189 187 185 186 188 188 187 183 184 185 188 189 191 195 197 200 201 201 197 203 194 172 183 186 179 193 194 197 196
182 200 192 197 204 197 208 210 195 194 206 232 131 162 195 211 226 240 189 238 248 320 275 269 200 264 259 253 199 189 198 205 203 200 202 201 199 200 199 197 197 195 194 194 193 193 192 192 193 192 191 194 186 182 187 189 188 187 186 185 186 189 188 186 184 186 190 191 190 192 193 198 204 203 205 195 193 180 171 178 172 180 190 191 194 196
215 199 187 199 201 214 215 210 196 194 220 220 157 169 204 209 230 229 185 202 251 227 257 253 182 238 272 268 168 199 196 202 205 202 201 200 198 200 200 200 199 198 197 198 199 195 193 194 194 193 191 187 188 189 188 186 183 185 184 186 186 191 190 186 186 188 191 193 190 193 197 199 199 197 190 166 186 186 170 180 184 183 182 187 189 197
228 174 176 195 213 209 193 213 198 203 221 101 151 165 200 212 227 213 190 183 248 241 242 247 229 191 267 244 184 180 212 201 200 206 205 202 202 202 201 198 197 196 197 200 202 199 196 194 193 187 187 191 189 188 185 184 185 184 185 185 187 191 190 187 188 188 191 192 193 197 197 198 196 190 177 172 186 179 175 189 191 186 187 180 191 189
229 258 191 203 204 200 173 210 205 208 209 200 178 200 65 289 59 152 228 161 217 244 239 242 233 186 231 272 235 209 201 197 196 197 201 200 201 202 201 201 198 196 197 200 199 197 194 190 190 187 191 188 188 184 186 188 185 185 185 184 188 190 191 189 189 189 191 191 195 198 197 199 198 187 184 187 192 191 194 196 192 186 173 189 186 189
222 225 239 241 196 195 186 204 206 203 203 203 196 175 200 240 163 235 150 214 215 224 241 225 192 237 231 239 210 210 219 210 197 196 197 197 201 200 200 198 196 195 198 198 197 194 190 190 188 189 189 186 187 188 186 186 185 185 185 185 187 191 190 190 188 190 191 191 195 196 198 200 195 191 190 193 196 197 200 195 185 178 193 182 182 195
230 238 225 234 239 203 190 195 177 204 198 197 198 185 184 200 208 218 221 317 268 264 248 240 163 238 129 257 223 204 207 206 212 209 199 196 198 199 200 196 194 195 196 195 196 194 192 192 190 189 187 187 189 188 186 186 185 185 186 185 187 191 189 189 189 190 191 194 195 195 196 197 192 194 193 195 199 200 202 195 196 194 193 188 196 193
203 208 220 200 218 171 203 205 187 188 184 200 198 184 202 203 190 204 179 201 210 198 241 206 152 230 171 233 196 200 204 206 207 212 207 202 198 200 199 191 191 193 195 194 194 195 195 194 190 189 188 188 188 187 186 186 186 184 186 186 189 189 190 189 190 190 192 195 195 195 196 193 191 194 196 200 200 198 198 201 201 200 195 195 199 199
226 234 201 201 216 167 208 202 176 175 194 201 195 197 190 218 116 192 203 146 185 211 252 209 199 187 193 242 257 202 197 197 199 206 210 210 210 209 196 190 195 195 194 193 195 197 198 195 191 190 188 188 187 186 186 187 186 187 189 188 188 188 187 189 190 192 193 195 194 195 194 193 191 193 195 199 201 203 200 201 201 201 197 201 197 199
309 231 160 211 203 195 198 188 193 168 206 182 182 208 213 92 152 233 284 247 117 128 240 124 268 285 301 326 242 165 176 203 192 197 203 205 198 196 195 197 198 197 194 192 195 195 195 193 192 192 189 187 186 186 189 188 187 188 188 189 191 191 187 189 190 191 193 194 194 197 196 193 192 192 193 197 199 201 201 200 203 202 201 192 187 192
3 285 303 299 234 210 212 187 194 195 150 122 198 208 97 133 152 191 214 239 199 210 249 165 202 210 173 239 245 170 171 195 196 199 198 201 189 190 197 198 198 197 196 195 195 195 193 190 191 191 190 188 188 189 189 189 188 189 188 189 190 190 189 191 190 192 192 193 195 196 196 196 195 194 197 197 198 198 197 203 204 204 197 197 193 190
337 305 296 236 231 277 214 201 212 206 193 211 216 117 171 167 206 200 144 230 212 220 258 288 187 224 188 235 200 195 189 184 194 202 204 200 191 193 194 198 199 199 195 196 198 196 191 192 192 192 192 191 190 189 189 188 186 188 191 192 191 191 191 188 190 192 193 191 194 196 197 196 196 197 198 198 196 190 198 204 204 204 207 201 192 188
308 290 300 292 43 319 304 194 213 216 209 212 107 175 174 153 216 176 203 163 124 252 188 271 164 230 211 212 188 196 195 194 179 189 201 206 198 192 191 195 196 197 195 198 196 194 192 194 193 191 190 189 189 188 187 185 185 189 191 190 192 193 190 188 190 189 191 192 193 195 194 197 198 197 198 197 193 194 199 204 205 207 205 203 191 196
304 345 270 296 332 320 232 194 208 197 193 204 193 195 191 210 218 167 12 165 201 187 191 212 257 269 248 215 181 196 204 202 171 186 194 200 201 196 192 194 194 194 196 194 196 194 194 194 192 192 192 191 188 184 181 183 187 188 187 190 190 188 188 190 192 190 193 190 195 193 193 195 195 198 197 197 197 200 203 204 206 208 209 185 197 193
300 14 310 300 333 314 261 264 230 211 210 207 208 207 199 180 137 184 234 109 127 128 218 171 261 263 260 195 189 199 207 209 190 180 190 196 201 198 194 197 193 194 196 196 193 195 195 191 190 190 189 183 178 180 184 187 187 186 188 190 188 188 189 189 190 191 192 192 194 194 195 196 196 197 196 198 199 203 203 202 202 203 192 196 200 189
299 268 273 288 243 266 267 272 298 299 296 276 212 217 200 186 141 171 211 231 168 220 123 152 307 271 219 179 193 199 203 207 202 181 188 196 199 198 195 196 195 193 195 195 196 195 191 188 187 186 182 181 184 185 185 183 186 187 188 188 187 187 191 190 191 191 189 190 191 195 195 194 196 196 198 199 201 205 205 204 204 195 197 204 201 198
318 351 306 285 293 263 260 259 260 258 251 267 251 213 189 206 199 214 202 179 174 219 223 278 256 270 270 182 200 207 209 214 208 177 196 199 196 197 196 197 196 195 200 197 194 188 186 184 184 181 182 184 185 184 184 185 186 186 187 187 186 191 191 191 191 189 188 190 194 194 193 194 195 196 198 201 203 205 207 205 204 197 204 207 204 204
337 288 51 315 336 319 289 286 275 222 166 218 278 218 209 210 207 203 86 142 190 206 192 152 241 251 273 91 165 61 218 189 199 203 200 203 205 201 196 194 194 195 196 194 189 185 181 174 176 183 186 187 186 185 185 185 186 185 186 186 188 193 191 190 188 187 188 190 193 193 195 197 195 196 199 202 204 208 207 207 204 201 206 205 208 210
278 294 19 318 300 216 205 206 199 351 345 307 289 267 216 211 200 154 195 167 208 245 152 197 240 253 272 267 299 300 295 277 250 213 211 203 193 196 197 194 189 191 192 187 182 176 175 178 182 184 185 187 186 185 186 186 185 186 186 189 189 189 186 188 186 188 188 191 192 193 196 198 197 198 198 201 205 208 208 207 206 205 207 204 208 209
246 260 198 204 210 251 292 295 279 311 322 309 297 313 299 236 202 189 110 157 207 199 183 224 218 258 267 271 271 266 297 289 257 203 211 208 201 196 191 185 185 189 187 181 178 180 177 178 182 185 185 185 185 185 185 185 186 186 186 187 188 187 186 185 185 187 188 190 193 194 198 197 198 197 198 200 205 207 207 208 208 208 209 204 207 206
316 301 250 226 237 246 264 274 285 296 275 273 274 280 275 274 223 188 184 209 149 119 221 252 212 228 253 259 259 276 307 290 270 204 208 203 194 190 184 183 185 185 180 177 177 173 177 182 183 183 183 184 185 186 185 186 187 187 186 186 186 185 185 185 186 187 189 190 194 196 198 199 197 198 199 200 202 205 208 209 210 212 212 206 207 208
279 254 288 245 263 274 270 273 273 267 250 250 264 261 271 272 243 202 201 180 146 198 213 235 204 218 247 249 266 300 271 264 255 216 205 199 187 180 177 178 180 179 172 172 177 177 181 181 181 182 182 184 182 182 184 184 186 186 185 184 185 186 189 185 185 188 190 191 194 197 197 197 197 198 199 199 200 204 207 208 211 213 213 211 212 211
275 245 257 298 305 293 278 260 256 257 255 261 252 278 268 251 244 212 192 164 180 198 196 205 201 220 237 285 310 281 281 264 263 256 308 215 181 176 177 179 180 175 173 178 179 180 181 182 181 181 181 179 180 183 182 184 186 187 186 185 185 188 187 182 188 189 191 193 195 196 196 196 196 196 198 199 201 203 204 207 209 211 213 213 214 214
2 264 323 328 317 294 283 282 313 313 312 288 340 308 345 338 219 203 189 175 180 263 283 239 210 252 276 235 278 311 312 332 357 16 231 203 180 178 178 181 179 177 178 181 179 180 182 183 182 178 177 180 182 182 183 185 188 188 188 187 187 189 185 183 187 189 190 193 195 196 194 193 197 196 199 202 202 201 201 204 206 210 213 214 214 215
320 270 0 349 333 298 302 347 329 325 312 283 344 359 0 354 4 213 90 345 193 201 299 20 214 267 304 357 334 357 48 37 19 345 339 278 220 181 180 180 179 178 179 182 182 181 179 176 172 176 180 183 184 184 185 185 186 186 191 188 189 185 180 183 186 188 189 194 195 193 192 194 195 197 201 200 203 201 200 201 204 208 211 212 214 215
235 288 333 335 326 259 286 324 315 314 316 30 4 5 343 35 70 87 59 39 28 231 75 186 279 252 295 349 348 7 55 46 33 16 338 331 252 208 183 178 180 180 182 181 176 173 174 176 178 181 184 183 184 185 189 185 182 190 190 188 184 175 182 184 184 184 188 194 195 194 192 193 194 198 200 201 202 202 200 201 204 208 209 212 213 213
253 278 271 7 294 287 305 317 312 325 73 220 91 28 356 39 41 54 33 26 14 31 137 213 254 11 33 22 23 358 53 55 53 30 31 24 6 134 217 204 187 182 178 175 175 176 176 175 178 182 182 182 184 188 186 182 189 191 186 179 174 183 183 180 183 185 192 196 195 193 191 193 195 198 201 199 200 201 201 202 207 207 208 210 209 213
270 291 286 207 244 291 304 329 46 52 145 150 120 41 5 350 22 33 49 34 19 16 12 12 6 5 12 13 22 33 22 48 54 40 27 17 29 60 82 93 100 120 129 130 130 135 146 155 151 149 159 175 180 172 167 186 185 162 172 178 182 183 181 182 184 188 194 195 195 193 193 193 196 199 200 200 200 201 203 205 208 207 207 207 209 212
256 247 280 252 241 282 297 355 140 195 277 358 53 19 5 348 27 331 37 22 19 12 5 7 354 352 359 360 332 300 358 349 50 39 24 17 21 36 68 72 94 101 108 121 124 127 131 138 145 150 153 140 141 159 177 179 171 173 185 182 181 181 183 184 187 191 193 195 195 195 194 193 196 200 200 199 200 201 205 206 207 208 206 208 213 215
234 268 282 297 188 284 325 296 250 341 351 40 5 2 349 338 324 350 31 28 13 5 5 355 357 2 359 4 349 317 304 327 51 23 16 13 12 28 52 59 70 91 98 100 105 107 110 114 116 121 117 124 138 150 169 164 175 183 182 185 186 180 184 185 189 193 192 196 196 196 196 195 196 200 200 199 199 202 205 207 209 210 205 208 212 213
216 214 205 152 283 98 341 327 341 55 182 319 330 292 290 291 287 279 267 37 8 360 354 360 3 357 9 12 359 340 304 57 43 10 0 4 7 21 36 48 55 69 85 95 92 93 94 95 97 98 106 104 92 96 147 165 170 173 178 186 185 183 190 188 194 194 193 198 198 197 197 196 197 199 200 199 200 202 206 208 209 209 203 206 209 212
222 224 244 258 285 360 314 237 222 305 246 339 322 312 305 305 281 285 221 51 1 349 345 347 6 2 8 16 17 359 336 73 31 15 350 2 11 11 30 40 49 55 65 79 96 100 96 95 98 99 93 91 86 76 88 136 160 164 177 183 185 187 192 197 199 197 195 200 200 199 197 197 198 200 200 200 203 203 205 207 207 208 203 208 210 215
231 215 160 154 233 219 253 273 217 129 344 322 313 314 311 307 310 200 111 40 342 339 338 346 7 5 3 16 358 17 30 70 45 10 355 4 18 16 24 32 41 50 57 65 71 87 97 101 90 78 77 77 80 81 83 93 105 120 140 161 174 187 197 200 203 203 200 200 200 200 199 198 198 201 200 202 205 205 207 208 208 207 205 209 210 213
252 285 142 218 230 239 236 237 81 335 317 325 324 315 317 305 255 70 88 196 315 334 344 354 5 8 3 27 21 35 24 35 34 13 9 13 23 21 20 27 36 43 53 54 62 72 81 79 82 86 83 84 79 74 76 87 86 85 89 93 86 89 148 236 230 218 206 198 196 199 201 201 200 201 203 203 204 204 207 205 206 206 204 207 207 211
23 344 314 335 341 329 240 129 171 159 336 337 329 329 327 337 54 61 67 328 315 342 346 357 8 9 6 28 22 23 14 23 24 25 22 17 23 21 23 25 29 33 38 49 54 59 75 81 82 82 76 71 72 70 73 81 83 86 82 75 63 42 219 215 221 209 207 204 199 198 198 200 203 204 204 204 203 204 208 208 206 206 204 205 205 208
359 17 8 345 331 341 358 51 50 357 332 347 329 342 12 52 30 353 359 32 358 349 356 359 10 7 9 15 12 16 14 18 23 20 17 15 18 20 17 22 26 28 23 27 44 49 66 75 73 74 76 69 66 63 65 75 78 78 71 61 23 327 303 239 185 206 208 206 203 199 196 198 199 201 204 203 200 202 206 204 203 205 201 201 204 206
356 57 17 325 347 346 12 45 49 342 293 348 8 47 6 27 11 358 343 19 10 0 353 3 1 0 3 12 9 8 16 14 16 13 12 14 13 13 17 19 21 21 22 21 30 39 53 65 67 66 59 58 59 61 60 74 80 73 63 35 317 322 342 7 355 123 175 200 210 206 205 200 199 199 200 201 199 201 203 201 201 201 199 199 201 203
4 24 6 285 348 358 20 95 292 293 347 12 29 25 21 8 17 11 3 7 2 5 346 9 353 350 353 3 7 8 3 8 9 8 12 4 11 13 13 12 15 15 15 19 15 23 46 57 63 65 58 48 51 58 62 63 75 62 44 347 341 342 357 348 351 359 6 206 205 208 208 199 199 201 199 197 194 196 200 201 189 195 197 193 200 202
34 11 10 6 345 318 150 136 146 57 16 328 12 53 17 12 14 8 8 356 349 347 1 2 355 350 349 352 3 3 5 357 3 3 4 5 9 8 10 10 10 11 14 16 18 16 31 47 55 58 58 47 42 54 65 65 69 65 15 332 0 344 325 336 3 356 343 328 228 214 199 196 199 197 196 192 193 196 196 193 189 193 191 191 199 200
36 4 29 32 326 334 204 32 14 349 330 216 261 60 47 32 21 9 349 346 339 339 359 2 351 341 348 346 359 356 355 355 360 355 355 1 7 6 4 7 4 7 9 10 6 13 24 48 52 52 52 50 32 47 56 62 57 64 47 39 10 12 336 342 31 353 342 330 275 206 194 195 192 189 187 184 183 186 185 184 188 193 189 191 196 197
15 360 348 7 322 292 299 331 348 325 303 195 144 87 45 25 6 6 343 326 329 336 348 348 349 336 340 345 348 344 351 345 7 343 343 352 0 3 0 0 360 358 359 3 4 12 25 54 66 63 59 53 36 44 54 54 47 39 36 32 23 14 16 28 35 9 334 319 277 193 191 191 186 165 141 121 122 139 153 167 177 183 186 190 195 190
339 356 13 332 296 294 275 337 353 335 348 142 135 108 63 29 346 336 339 321 325 336 338 332 344 334 333 331 334 339 346 340 342 334 335 347 359 4 354 350 355 357 355 360 355 8 20 47 75 78 74 63 51 59 57 53 43 34 34 22 27 38 45 20 14 24 12 352 24 176 177 165 140 124 113 92 72 56 40 9 360 128 122 47 41 207
5 21 343 332 324 329 352 347 356 339 312 289 268 253 342 8 323 319 316 313 318 326 323 316 330 333 329 330 339 344 329 328 330 339 340 342 346 345 344 346 352 356 353 348 350 15 21 34 71 77 71 63 53 53 47 38 28 23 21 14 24 36 47 26 20 31 15 360 4 64 127 123 112 112 118 118 109 100 76 59 63 35 48 67 8 62
2 348 345 337 321 300 313 314 308 288 280 273 292 308 312 334 331 309 300 293 299 305 306 305 313 324 325 333 332 332 317 310 317 331 339 340 336 328 327 337 350 351 349 347 354 5 14 14 29 48 50 43 46 47 42 38 23 18 12 13 23 43 50 39 40 30 17 7 359 4 107 113 111 112 112 114 119 113 110 97 52 47 46 50 48 57